Location: Austin
(30.3000°N, 97.7500°W)
Time: 10:11:52
(UTC-05:00)

Sich 1 - Pass Details

Date: 26 May 2023
Orbit: 588 x 620 km, 82.5° (Epoch: 31 May)

Event Time Altitude Azimuth Distance (km) Brightness Sun altitude
Rises 21:43:34 0° 4° (N) 2,826 6.9 -15.4°
Reaches altitude 10° 21:45:54 10° 13° (NNE) 1,925 5.9 -15.8°
Maximum altitude 21:49:50 36° 81° (E) 944 3.6 -16.5°
Enters shadow 21:50:53 31° 113° (ESE) 1,044 3.7 -16.7°
